This is the latest recevied weather packets stored in our database for station/object KR0L-13. If no packets are shown the sender has not sent any weather packets the latest 10 day(s).
| Time | Temp. | Humidity | Pressure | Rain* | Wind** | Luminosity | Snow |
|---|---|---|---|---|---|---|---|
| 1777654221 | 17.78° C | 33% | 1020.1 hPa | 0 mm | - | - | - |
| 1777653621 | 17.78° C | 35% | 1020 hPa | 0 mm | - | - | - |
| 1777653021 | 17.78° C | 38% | 1020.3 hPa | 0 mm | - | - | - |
| 1777652421 | 16.67° C | 41% | 1020.2 hPa | 0 mm | - | - | - |
| 1777651821 | 17.22° C | 41% | 1020.2 hPa | 0 mm | - | - | - |
| 1777651221 | 16.67° C | 43% | 1020.3 hPa | 0 mm | - | - | - |
| 1777650621 | 16.11° C | 44% | 1020.2 hPa | 0 mm | - | - | - |
| 1777650022 | 16.11° C | 45% | 1020.2 hPa | 0 mm | - | - | - |
| 1777649421 | 16.11° C | 45% | 1020.3 hPa | 0 mm | - | - | - |
| 1777648821 | 15.56° C | 46% | 1020.3 hPa | 0 mm | - | - | - |
| 1777648221 | 15° C | 47% | 1020.4 hPa | 0 mm | - | - | - |
| 1777647621 | 15° C | 46% | 1020.4 hPa | 0 mm | - | - | - |
| 1777647021 | 15° C | 45% | 1020.4 hPa | 0 mm | - | - | - |
| 1777646421 | 14.44° C | 51% | 1020.3 hPa | 0 mm | - | - | - |
| 1777645821 | 13.89° C | 54% | 1020.5 hPa | 0 mm | - | - | - |
| 1777645221 | 13.33° C | 55% | 1020.4 hPa | 0 mm | - | - | - |
| 1777644621 | 12.78° C | 56% | 1020.3 hPa | 0 mm | - | - | - |
| 1777644021 | 12.22° C | 60% | 1020.6 hPa | 0 mm | - | - | - |
| 1777643421 | 11.67° C | 63% | 1020.5 hPa | 0 mm | - | - | - |
| 1777642821 | 11.11° C | 67% | 1020.4 hPa | 0 mm | - | - | - |
| 1777642221 | 10.56° C | 74% | 1020.6 hPa | 0 mm | - | - | - |
| 1777641621 | 10° C | 79% | 1020.6 hPa | 0 mm | - | - | - |
| 1777641021 | 9.44° C | 89% | 1020.6 hPa | 0 mm | - | - | - |
| 1777640421 | 7.22° C | 89% | 1020.3 hPa | 0 mm | - | - | - |
| 1777639821 | 6.11° C | 91% | 1020.4 hPa | 0 mm | - | - | - |
* Rain latest hour (hover to see other rain measurements)
** Current wind speed in m/s (hover to see current wind gust speed)